This is the latest recevied weather packets stored in our database for station/object WV5G-13. If no packets are shown the sender has not sent any weather packets the latest 10 day(s).
| Time | Temp. | Humidity | Pressure | Rain* | Wind** | Luminosity | Snow |
|---|---|---|---|---|---|---|---|
| 1777706663 | 5.56° C | 84% | 1019.5 hPa | 0 mm | - | 0 W/m² | - |
| 1777706361 | 5° C | 85% | 1019.2 hPa | 0 mm | - | 0 W/m² | - |
| 1777706059 | 4.44° C | 85% | 1019.2 hPa | 0 mm | - | 0 W/m² | - |
| 1777705757 | 4.44° C | 85% | 1019.5 hPa | 0 mm | - | 0 W/m² | - |
| 1777705455 | 3.89° C | 84% | 1019.6 hPa | 0 mm | - | 0 W/m² | - |
| 1777705153 | 3.89° C | 84% | 1019.5 hPa | 0 mm | - | 0 W/m² | - |
| 1777704851 | 3.89° C | 84% | 1019.4 hPa | 0 mm | - | 0 W/m² | - |
| 1777704549 | 4.44° C | 83% | 1019.6 hPa | 0 mm | - | 0 W/m² | - |
| 1777704246 | 5° C | 83% | 1019.7 hPa | 0 mm | - | 0 W/m² | - |
| 1777703943 | 5.56° C | 83% | 1019.4 hPa | 0 mm | - | 0 W/m² | - |
| 1777703641 | 5.56° C | 82% | 1019.4 hPa | 0 mm | - | 0 W/m² | - |
| 1777703338 | 6.11° C | 82% | 1019.6 hPa | 0 mm | - | 0 W/m² | - |
| 1777703035 | 6.67° C | 82% | 1019.5 hPa | 0 mm | - | 0 W/m² | - |
| 1777702734 | 6.67° C | 82% | 1019.7 hPa | 0 mm | - | 0 W/m² | - |
| 1777702431 | 6.67° C | 82% | 1019.9 hPa | 0 mm | - | 0 W/m² | - |
| 1777702127 | 6.67° C | 81% | 1019.6 hPa | 0 mm | - | 0 W/m² | - |
| 1777701822 | 6.67° C | 81% | 1019.5 hPa | 0 mm | - | 0 W/m² | - |
| 1777701520 | 7.22° C | 80% | 1019.6 hPa | 0 mm | - | 0 W/m² | - |
| 1777701218 | 7.22° C | 80% | 1019.4 hPa | 0 mm | - | 0 W/m² | - |
| 1777700917 | 7.22° C | 79% | 1019.5 hPa | 0 mm | - | 0 W/m² | - |
| 1777700614 | 7.78° C | 80% | 1019.5 hPa | 0 mm | - | 0 W/m² | - |
| 1777700312 | 7.22° C | 81% | 1019.6 hPa | 0 mm | - | 0 W/m² | - |
| 1777700009 | 6.67° C | 82% | 1019.6 hPa | 0 mm | - | 0 W/m² | - |
| 1777699706 | 6.67° C | 82% | 1019.7 hPa | 0 mm | - | 0 W/m² | - |
| 1777699404 | 6.67° C | 82% | 1019.5 hPa | 0 mm | - | 0 W/m² | - |
* Rain latest hour (hover to see other rain measurements)
** Current wind speed in m/s (hover to see current wind gust speed)